SCP
1 1 2 2 2 2 2 2 2 2 2 2 2 2 2 2 2 1 1 1 2 1 1 1 1 1 1 1 1 1 1 1 1 1 1 1 1 1 1 1 0 0 0
1 1 2 2 2 2 2 2 2 2 2 2 2 2 2 2 1 1 1 1 2 2 1 1 1 1 1 1 1 1 1 1 1 1 1 1 1 1 1 1 0 0 0
2 2 1 1 1 2 2 2 2 2 2 2 2 2 2 1 1 1 1 1 1 2 2 2 2 2 2 1 1 1 1 1 1 1 1 1 1 1 1 1 1 0 0
2 2 2 2 1 1 2 2 2 2 2 2 2 2 1 1 1 1 1 1 1 2 2 2 2 2 2 2 2 2 2 2 2 1 1 1 1 1 1 1 1 1 0
1 1 1 1 1 1 1 1 1 1 1 1 1 1 1 1 1 1 1 1 1 2 2 2 2 2 2 1 2 2 2 2 2 2 1 1 1 1 1 1 1 1 0
1 1 1 1 1 1 1 1 1 1 1 1 1 1 1 1 1 1 1 1 1 1 1 1 1 1 1 1 1 2 2 3 2 2 2 1 1 1 1 1 1 1 1
0 0 0 0 0 0 0 1 1 1 1 1 1 1 1 1 1 1 1 1 1 1 1 1 1 1 1 1 1 2 2 3 3 3 2 2 1 1 1 1 1 1 1
0 0 0 0 0 0 0 0 0 0 0 1 1 1 1 1 1 1 1 1 1 1 1 1 1 1 1 1 1 2 2 3 3 3 3 2 2 1 1 1 1 1 1
0 0 0 0 0 0 0 0 0 0 0 0 0 1 1 1 1 1 1 1 1 1 1 1 1 1 1 1 1 1 2 2 3 3 3 3 2 1 1 1 1 1 1
0 0 0 0 0 0 0 0 0 0 0 0 0 0 0 1 1 1 1 1 1 1 1 1 1 1 1 1 2 1 1 2 2 3 3 3 2 2 1 1 1 1 1
0 0 0 0 0 0 0 0 0 0 0 0 0 0 0 0 1 1 1 1 1 1 1 1 1 1 1 1 1 1 1 1 1 2 3 3 2 2 2 1 1 1 1
0 0 0 0 0 0 0 0 0 0 0 0 0 0 0 0 0 0 1 1 1 1 1 1 1 1 1 1 1 1 1 1 1 1 2 3 2 2 2 2 1 1 1
0 0 0 0 0 0 0 0 0 0 0 0 0 0 0 0 0 0 0 0 1 1 1 1 1 1 1 1 1 1 1 1 1 1 1 2 2 2 2 2 1 1 1
0 0 0 0 0 0 0 0 0 0 0 0 0 0 0 0 0 0 0 0 0 1 1 1 1 2 2 2 1 1 1 1 0 0 0 1 1 1 1 1 1 1 1
0 0 0 0 0 0 0 0 0 0 0 0 0 0 0 0 0 0 0 0 0 0 1 1 2 2 2 2 1 1 1 1 0 0 0 0 0 0 0 1 1 1 1
0 0 0 0 0 0 0 0 0 0 0 0 0 0 0 0 0 0 0 0 0 0 0 1 1 2 2 1 1 1 1 1 1 0 0 0 0 0 0 0 0 0 0
0 0 0 0 0 0 0 0 0 0 0 0 0 0 0 0 0 0 0 0 0 0 0 0 1 1 1 1 1 2 2 1 1 0 0 0 0 0 0 0 0 0 0
0 0 0 0 0 0 0 0 0 0 0 0 0 0 0 0 0 0 0 0 0 0 0 0 1 1 1 1 1 1 2 2 1 1 0 0 0 0 0 0 0 0 0
0 0 0 0 0 0 0 0 0 0 0 0 0 0 0 0 0 0 0 0 0 0 0 1 1 1 1 1 1 1 2 2 1 1 0 0 0 0 0 0 0 0 0
0 0 0 0 0 0 0 0 0 0 0 0 0 0 0 0 0 0 0 0 0 0 0 1 1 1 1 1 1 2 2 2 2 1 1 1 0 0 0 0 0 0 0
0 0 0 0 0 0 0 0 0 0 0 0 0 0 0 0 0 0 0 0 0 0 0 1 1 1 1 1 2 2 2 2 2 2 1 1 1 1 1 0 0 0 0
0 0 0 0 0 0 0 0 0 0 0 0 0 0 0 0 0 0 0 0 0 0 0 0 1 1 1 1 1 2 2 2 2 2 2 1 1 1 1 1 0 0 0
0 0 0 0 0 0 0 0 0 0 0 0 0 0 0 0 0 0 0 0 0 0 0 0 0 1 1 1 1 1 2 2 2 2 2 2 1 1 1 1 0 0 0
0 0 0 0 0 0 0 0 0 0 0 0 0 0 0 0 0 0 0 0 0 0 0 0 0 0 0 1 1 1 1 2 2 3 3 3 2 1 1 0 0 0 0
0 0 0 0 0 0 0 0 0 0 0 0 0 0 0 0 0 0 0 0 0 0 0 0 0 0 0 0 0 1 1 1 2 3 3 3 2 1 0 0 0 0 0
0 0 0 0 0 0 0 0 0 0 0 0 0 0 0 0 0 0 0 0 0 0 0 0 0 0 0 0 0 0 1 1 1 2 3 3 2 1 0 0 0 0 0
Wind_Speed
4 4 3 3 4 3 4 4 5 6 6 7 8 10 10 10 10 9 6 10 12 13 13 13 13 14 16 17 18 17 17 16 15 15 14 14 14 14 14 13 12 12 11
4 4 4 3 3 3 3 3 4 4 5 5 8 9 10 10 10 10 10 10 14 14 15 15 15 15 15 17 19 19 19 18 17 16 15 15 14 14 15 14 13 13 12
6 5 4 3 2 2 3 3 4 4 5 6 7 8 9 10 10 11 11 9 10 15 17 17 16 16 16 17 19 20 20 19 18 17 17 16 15 15 15 14 14 13 12
7 6 5 4 2 3 3 2 4 4 4 5 6 6 7 7 10 11 11 11 10 10 15 19 18 17 17 18 19 19 20 21 20 19 18 17 17 16 16 16 15 14 14
7 6 4 4 4 4 3 4 3 4 5 5 6 6 7 8 9 10 12 12 12 11 11 13 18 17 19 20 20 19 20 21 21 21 20 19 19 18 17 17 16 16 15
7 7 5 4 6 5 4 3 4 4 5 5 7 7 8 8 8 9 11 11 11 13 13 13 12 14 19 19 19 19 20 21 22 22 22 21 20 19 19 18 17 17 16
7 6 6 4 5 5 5 6 6 6 6 4 7 8 8 10 10 9 10 9 11 11 12 13 11 10 10 20 21 20 21 21 22 22 22 22 21 20 20 20 19 18 18
6 5 6 7 5 5 6 6 6 7 7 5 6 7 7 7 6 8 7 8 8 8 10 12 12 12 11 9 14 23 22 22 22 22 22 22 21 21 21 21 20 19 19
6 6 6 7 7 8 6 6 7 8 7 6 4 5 6 6 4 3 4 4 4 4 6 7 11 12 13 11 10 18 23 21 23 24 23 23 22 21 21 21 21 21 20
5 6 6 6 6 7 6 7 5 6 7 7 4 4 5 5 6 5 4 3 4 4 5 5 7 9 11 10 10 11 18 21 23 25 25 24 24 23 22 22 23 22 22
4 5 5 5 6 6 6 7 6 7 7 7 6 5 5 5 7 7 7 5 5 4 4 5 5 6 8 10 9 13 15 18 20 22 23 24 25 24 24 24 24 24 24
4 3 4 4 6 5 5 6 6 8 7 7 8 7 7 6 6 6 7 7 6 5 4 4 5 5 5 7 11 11 14 16 18 19 20 21 23 24 25 25 25 25 25
5 3 5 5 5 5 6 6 7 7 7 7 8 8 8 7 7 7 8 8 8 6 5 5 3 3 3 4 6 8 12 14 16 17 18 19 21 22 23 24 25 25 25
6 5 6 6 6 6 7 6 7 7 6 7 9 8 8 9 8 8 8 8 9 8 6 5 2 1 2 2 2 5 8 12 14 15 15 15 17 20 21 21 22 22 22
6 6 7 7 7 7 7 7 7 7 7 8 9 9 9 8 8 8 8 9 9 10 8 4 3 1 3 3 1 4 6 9 12 13 13 14 16 18 19 19 19 19 20
8 8 9 8 8 8 8 8 9 8 8 8 7 8 8 9 8 8 9 9 9 10 10 7 4 3 5 6 2 4 5 6 10 11 12 13 14 16 18 19 20 20 20
8 9 9 9 10 10 9 9 10 10 10 10 9 9 9 9 9 9 9 9 10 10 11 9 6 4 4 6 5 4 4 4 6 10 10 11 12 13 14 17 19 19 20
9 10 10 10 11 11 10 10 11 11 11 11 11 10 10 9 10 10 9 10 10 9 11 12 9 7 6 5 5 5 3 3 4 7 9 9 9 10 12 14 16 17 18
10 10 10 11 11 11 11 11 11 11 11 12 11 11 11 11 11 10 10 10 10 10 10 11 11 8 6 5 5 4 3 2 2 5 7 7 7 8 9 12 14 15 16
10 10 11 11 11 11 11 12 11 11 11 12 12 12 12 12 12 11 10 11 11 11 10 11 11 9 8 7 6 5 4 4 3 3 4 4 6 6 7 9 11 13 15
11 11 11 11 11 11 10 10 10 11 11 12 12 12 13 12 11 10 10 10 10 10 10 10 10 10 9 7 7 6 6 4 4 4 4 5 6 5 5 7 9 11 12
10 11 11 11 11 10 4 4 9 13 13 13 13 12 12 13 14 15 16 16 15 13 12 11 10 10 9 9 7 6 6 6 5 5 5 4 4 5 4 4 6 9 11
11 11 11 11 12 11 7 8 10 12 14 13 13 12 12 11 11 13 16 20 20 20 18 14 14 12 10 9 9 9 8 7 6 6 6 5 4 4 3 4 6 7 9
10 10 10 11 11 11 8 9 10 13 14 14 14 14 13 13 12 11 13 13 14 15 17 16 15 14 13 11 9 10 9 8 5 5 6 4 4 3 3 4 5 5 8
10 10 10 11 12 12 9 9 10 11 12 14 14 14 13 13 10 8 12 14 14 13 13 14 13 13 11 10 8 9 9 8 6 5 5 4 5 4 3 3 3 5 6
10 11 11 11 12 13 9 8 10 10 11 11 11 12 12 14 10 7 12 13 15 14 13 13 14 15 16 16 14 13 12 10 7 6 6 6 6 6 4 2 2 3 5
Wind_Direction
300 296 286 278 269 265 245 244 247 250 249 243 239 234 233 234 238 238 228 206 213 220 229 234 234 229 220 214 210 209 209 207 202 199 198 197 194 191 190 189 188 184 182
335 313 288 281 275 274 283 272 263 256 249 249 247 245 242 238 235 235 239 222 214 217 224 231 234 234 229 222 216 212 209 209 206 202 200 199 196 193 194 193 192 190 188
346 319 300 279 288 275 258 257 262 258 253 250 251 250 245 241 240 236 239 238 225 216 219 226 231 234 234 231 223 216 212 208 206 204 202 200 198 196 195 194 195 194 192
348 319 307 301 310 277 266 262 259 268 268 269 263 258 250 241 239 237 237 233 234 232 219 219 226 229 233 233 230 222 215 210 206 204 203 202 201 199 198 197 196 196 194
351 323 318 335 292 277 273 279 287 291 288 285 275 255 250 244 237 235 235 236 232 232 235 217 217 224 230 232 231 227 219 212 207 205 204 204 204 203 201 200 199 197 196
357 335 311 338 306 290 285 286 293 281 287 283 283 279 262 251 241 237 235 233 231 229 230 232 221 220 224 229 230 228 222 214 210 207 207 208 208 206 204 203 201 200 199
353 339 330 330 307 302 306 291 284 276 271 289 281 273 258 243 237 235 233 235 232 230 230 228 229 230 220 218 224 225 222 217 211 209 209 210 210 209 207 205 203 202 201
338 332 345 315 321 308 283 285 278 289 289 278 287 292 282 254 221 233 228 227 238 235 231 228 226 226 232 225 213 215 220 217 212 210 211 211 211 212 209 207 205 203 202
327 331 324 322 323 301 305 304 288 275 281 280 274 292 297 302 322 242 230 226 226 237 240 236 229 227 226 228 227 207 212 214 214 212 211 210 210 210 210 208 208 205 205
316 317 316 318 315 310 316 292 299 294 276 275 259 254 277 308 297 295 263 231 230 243 252 249 241 228 226 226 225 227 209 210 213 214 212 212 211 210 210 209 210 209 208
305 312 312 314 311 302 321 316 311 293 283 277 280 271 266 258 257 272 284 292 276 258 246 251 251 238 228 227 224 223 210 210 213 215 215 213 212 210 210 210 212 213 212
305 319 305 308 300 311 312 301 301 283 287 292 286 280 274 274 275 278 280 279 280 277 277 269 255 246 230 229 228 219 211 210 212 215 218 217 214 211 211 210 213 214 214
308 326 311 299 300 302 295 296 288 293 287 284 275 274 275 276 281 281 281 285 287 284 271 261 242 256 246 234 233 216 218 213 213 215 218 218 214 212 212 211 213 215 217
309 321 293 284 284 285 287 289 284 275 276 280 276 280 280 271 273 272 275 282 282 277 264 258 265 264 296 262 237 224 226 213 215 216 217 217 215 212 211 210 211 212 214
287 288 287 282 279 277 278 279 276 282 277 271 271 260 260 271 266 268 269 270 276 280 274 255 248 270 317 303 297 247 234 209 209 211 215 216 216 212 208 206 207 208 209
282 281 280 281 278 275 268 266 270 260 263 264 267 280 280 274 274 270 268 266 265 270 276 276 257 275 320 304 282 273 247 203 205 206 212 215 214 211 208 205 205 205 205
281 276 276 278 277 276 273 266 267 273 263 264 264 260 259 270 275 275 266 262 261 261 265 268 261 250 268 286 292 281 253 223 194 196 204 210 213 212 210 206 202 201 201
275 276 277 277 277 277 275 271 269 269 265 261 260 261 260 257 254 263 269 268 266 269 269 271 269 258 245 257 274 278 263 230 201 179 191 199 206 208 209 207 201 198 198
276 279 278 277 278 278 275 271 269 268 266 264 262 259 258 257 257 258 260 263 263 258 256 262 262 258 250 242 247 249 240 225 198 168 177 181 192 201 206 204 200 196 195
278 279 280 280 280 278 275 273 271 269 268 266 263 260 257 254 252 255 256 256 261 266 262 259 261 255 245 232 231 232 221 200 188 166 151 147 156 174 190 194 195 193 191
277 279 281 280 278 276 271 276 280 278 275 270 265 259 256 254 258 260 265 262 256 252 255 251 252 251 246 235 230 223 219 196 183 179 166 162 160 165 170 178 186 187 185
279 281 280 280 280 278 293 289 278 282 278 273 269 265 259 244 237 234 247 261 270 268 264 264 258 253 252 250 243 236 220 203 197 185 177 167 171 161 159 162 157 172 181
282 280 281 280 279 279 266 248 252 271 273 270 269 266 263 257 238 240 230 231 242 249 256 267 270 270 265 254 257 245 230 224 214 178 175 163 163 145 122 101 127 162 178
287 285 283 282 280 278 259 243 246 262 265 264 262 260 261 265 260 257 258 247 240 235 230 234 248 260 266 277 272 263 258 237 226 192 177 161 156 137 123 111 117 155 173
287 285 283 281 280 279 260 237 241 271 264 264 262 260 260 262 257 243 257 260 257 251 240 237 246 256 273 287 289 274 251 228 215 194 188 166 144 126 122 114 99 128 157
284 285 284 283 281 279 269 237 232 264 267 268 265 262 251 248 261 238 252 255 254 251 252 238 227 237 246 248 242 248 255 238 218 194 181 170 151 147 136 113 108 124 131